Regional Weather Roundup
Issued by NWS

Home | Current Version | Previous Version | Text Only | Print | Product List | Glossary Off
Versions: 1 2 3 4 5 6 7 8 9 10 11 12 13 14 15 16 17 18 19 20 21 22 23 24 25 26 27 28 29 30 31 32 33 34 35 36 37 38 39 40 41 42 43 44 45 46 47 48 49

000
ASUS45 KBOU 141207
RWRCO

WEATHER ROUNDUP FOR COLORADO
NATIONAL WEATHER SERVICE DENVER/BOULDER CO
600 AM MDT SUN SEP 14 2014

NOTE: "FAIR" INDICATES FEW OR NO CLOUDS BELOW 12000 FEET WITH NO
SIGNIFICANT WEATHER AND/OR OBSTRUCTIONS TO VISIBILITY.

COZ001>005-013-030-031-141300-
...NORTHWEST COLORADO...

CITY           SKY/WX    TMP DP  RH WIND       PRES   REMARKS
CRAIG          CLEAR     37  33  85 CALM      30.20S
HAYDEN         CLEAR     46  32  57 E13       30.21S
MEEKER         CLEAR     42  34  73 CALM      30.23R
MOUNT WERNER   NOT AVBL
STEAMBOAT SPGS CLEAR     40  33  76 CALM      30.24S
WALDEN         CLEAR     37  28  70 E5        30.29R
$$

COZ006>008-011-141300-
...WEST CENTRAL VALLEYS...

CITY           SKY/WX    TMP DP  RH WIND       PRES   REMARKS
GRAND JUNCTION CLEAR     54  35  48 SE12      30.13R
MONTROSE       PTCLDY    54  37  52 SE7       30.22R
EAGLE          CLEAR     39  34  81 CALM      30.31R
RIFLE          CLEAR     45  36  70 SE3       30.21R
DELTA          PTCLDY    53  38  56 NE7       30.19R
NUCLA          MOCLDY    54  36  50 SE8       30.25S
$$

COZ017>023-064>068-141300-
...SOUTHWEST COLORADO...

CITY           SKY/WX    TMP DP  RH WIND       PRES   REMARKS
DURANGO        CLEAR     48  37  65 CALM      30.29S
CORTEZ         CLEAR     43  39  86 N3        30.23R
PAGOSA SPRINGS NOT AVBL
TELLURIDE      MOCLDY    48  34  57 SE6       30.42R
WOLF CREEK PAS CLEAR     37  32  81 SW17      30.58R
$$

COZ009-010-012-014-032>034-037-058>063-141300-
...CENTRAL COLORADO...

CITY           SKY/WX    TMP DP  RH WIND       PRES   REMARKS
ASPEN          CLEAR     43  31  62 SW7       30.32R
BUENA VISTA    CLEAR     37  27  69 NW5       30.36S
COPPER MTN     CLEAR     45  19  36 SW17      30.55S
BERTHOUD PASS  FAIR      36  36 100 NW20G32   30.56R
COTTONWOOD PAS CLEAR     52  25  35 W6        30.45R
GUNNISON       CLEAR     36  28  75 CALM      30.40R
KREMMLING      CLEAR     34  30  86 CALM      30.33R
LEADVILLE      CLEAR     31  22  69 N3        30.43S
MONARCH PASS   CLEAR     41  23  48 W14       30.66S
SALIDA         CLEAR     42  30  62 NW6       30.42R
SUNLIGHT       CLEAR     45  30  57 CALM      30.49S
WILKERSON PASS NOT AVBL
$$

COZ069>075-141300-
...SAN LUIS VALLEY/SANGRE DE CRISTO MOUNTAINS...

CITY           SKY/WX    TMP DP  RH WIND       PRES   REMARKS
ALAMOSA        PTCLDY    39  32  76 E3        30.34R
LA VETA PASS   NOT AVBL
SAGUACHE       NOT AVBL
$$

COZ035-036-038>040-141300-
...NORTHERN COLORADO FRONT RANGE...

CITY           SKY/WX    TMP DP  RH WIND       PRES   REMARKS
DENVER INTL AP PTCLDY    54  33  45 SW13      30.11S
DMNS CITY PARK   N/A     50  39  65 S6        30.12S
AURORA         PTCLDY    51  34  51 SW8       30.14S
FRONT RANGE AP PTCLDY    54  34  47 SW10      30.12S
ERIE MUNI ARPT PTCLDY    44  42  94 CALM      30.12R
BOULDER MUN AP PTCLDY    46  43  87 CALM      30.11S
CENTENNIAL     PTCLDY    59  31  34 SW10      30.15R
BROOMFIELD     PTCLDY    52  34  50 W6        30.14S
FORT COLLINS   MOCLDY    45  39  81 N3        30.13R
LONGMONT       MOCLDY    47  42  84 CALM      30.13R
$$

COZ041-046-047-076>085-087-088-141300-
...PIKES PEAK/PALMER DIVIDE AND SOUTHERN FOOTHILLS...

CITY           SKY/WX    TMP DP  RH WIND       PRES   REMARKS
COLO. SPRINGS  PTCLDY    49  35  58 N7        30.20S
A. F. ACADEMY  CLEAR     40  33  74 N8        30.22S
ELLICOTT       NOT AVBL
FALCON         CLEAR     43  31  61 NW9       30.24R
FORT CARSON    PTCLDY    49  35  58 NW12      30.17S
LIMON          CLOUDY    40  40 100 N6        30.15S FOG
MONUMENT HILL  CLEAR     50  28  43 SW9       30.23R
TRINIDAD       CLEAR     52  46  80 W12       30.19S
$$

COZ042>045-048>051-090-091-141300-
...NORTHEAST COLORADO...

CITY           SKY/WX    TMP DP  RH WIND       PRES   REMARKS
GREELEY ARPT   MOCLDY    43  34  70 NW5       30.12R
AKRON          CLEAR     52  48  86 SW10      30.10S
BURLINGTON     PTCLDY    43  41  93 SW8       30.11S FOG
WRAY           FOG      N/A N/A N/A E5        30.10S VSB 1/4
STERLING         N/A     45  45 100 CALM      30.08S FOG
HOLYOKE        FOG       41  37  87 CALM      30.11R VSB 1/4
FORT MORGAN    CLEAR     43  40  89 CALM      30.10S
$$

COZ086-089-092>099-141300-
...SOUTHEAST COLORADO...

CITY           SKY/WX    TMP DP  RH WIND       PRES   REMARKS
PUEBLO         CLEAR     42  37  82 NW8       30.14R
LA JUNTA       CLOUDY    53  51  93 CALM      30.12S FOG
LAMAR          CLEAR     47  47 100 SW6       30.07F
SPRINGFIELD      N/A     52  50  93 W6        30.11S
$$



USA.gov is the U.S. government's official web portal to all federal, state and local government web resources and services.